Location: Unspecified
(0.0000°N, 0.0000°E)
Time: 23:37:07
(UTC+01:00)

Ariane H10-3 - Visible Passes

Search period start: 16 December 2017 00:00
Search period end: 26 December 2017 00:00
Orbit: 175 x 18528 km, 7.3° (Epoch: 16 December)

Date Brightness Start Highest point End Pass type
(mag) Time Alt. Az. Time Alt. Az. Time Alt. Az.
16 Dec 7.0 05:54:44 10° W 08:22:19 70° SSW 08:31:13 10° ESE visible
16 Dec 7.4 19:51:27 10° W 20:05:23 76° N 23:40:30 10° E visible
17 Dec 8.5 01:58:10 10° W 05:47:26 85° S 06:12:32 10° ESE visible
17 Dec 9.0 23:21:41 10° W 01:39:36 84° NNE 03:48:24 10° E visible
18 Dec 8.2 20:56:54 10° W 21:20:36 77° N 01:09:29 10° E visible
19 Dec 7.8 03:24:16 10° W 07:01:47 78° S 07:16:50 10° ESE visible
19 Dec 6.4 18:35:31 10° W 18:43:35 74° N 20:42:29 10° E visible
20 Dec 9.2 00:29:03 10° W 03:58:22 90° SSW 04:53:00 10° E visible
20 Dec 8.7 21:58:08 10° W 22:40:52 79° N 02:19:53 10° E visible
21 Dec 7.2 05:14:52 10° W 08:05:46 71° S 08:15:38 10° ESE visible
21 Dec 7.2 19:33:08 10° W 19:45:24 74° N 23:08:40 10° E visible
22 Dec 8.8 01:34:28 10° W 05:20:54 84° SSW 05:51:09 10° ESE visible
22 Dec 8.9 22:55:17 10° W 00:25:39 83° NNE 03:20:07 10° E visible
23 Dec 7.9 20:26:12 10° W 20:44:43 75° N 00:28:38 10° E visible
24 Dec 8.2 02:39:43 10° W 06:24:08 79° S 06:43:32 10° ESE visible
24 Dec 5.9 18:00:01 10° W 18:06:22 70° N 19:04:38 10° E visible
24 Dec 9.1 23:48:32 10° W 02:41:59 89° NNE 04:12:53 10° E visible
